Location: Meinert
(37.9441°N, 122.0275°W)
Time: 18:24:20
(UTC+00:00)

H-2A R/B - Pass Details

Date: 18 April 2024
Orbit: 732 x 833 km, 98.2° (Epoch: 23 May)

Event Time Altitude Azimuth Distance (km) Brightness Sun altitude
Rises 12:40:22 0° 11° (N) 3,212 5.7 -9.7°
Reaches altitude 10° 12:42:39 10° 11° (N) 2,297 4.9 -9.3°
Maximum altitude 12:47:43 83° 284° (WNW) 785 2.0 -8.3°
Drops below altitude 10° 12:52:54 10° 197° (SSW) 2,347 4.2 -7.4°
Sets 12:55:14 0° 197° (SSW) 3,288 4.9 -6.9°
